,,Stat6,,Stat2,,Stat8,,Stat9,,Stat10,,Wind1,,Wind1,
time,status,PA1M_AVG,status,PR1M_SUM,status,RH1M_AVG,status,SR1M_AVG,status,TA1M_AVG,status,W1dAve1m,status,W1sAve1m,
2005-09-23, 00:00:00,VALID,919.993,VALID,0,VALID,100,VALID,0.0509425,VALID,20.4933,VALID,88,VALID,1.04985,
2005-09-23, 00:01:00,VALID,919.98,VALID,0,VALID,99.9977,VALID,-0.0509425,VALID,20.5021,VALID,92,VALID,0.676054,
2005-09-23, 00:02:00,VALID,919.972,VALID,0,VALID,99.9557,VALID,-0.0679233,VALID,20.473,VALID,94,VALID,0.559659,
2005-09-23, 00:03:00,VALID,919.96,VALID,0,VALID,99.9847,VALID,-0.0679233,VALID,20.44,VALID,103,VALID,0.750363,
2005-09-23, 00:04:00,VALID,919.939,VALID,0,VALID,100,VALID,-0.101885,VALID,20.4117,VALID,93,VALID,0.96875,
2005-09-23, 00:05:00,VALID,919.921,VALID,0,VALID,100,VALID,-0.0509425,VALID,20.3891,VALID,105,VALID,0.95625,
2005-09-23, 00:06:00,VALID,919.897,VALID,0,VALID,100,VALID,-0.0339617,VALID,20.3503,VALID,111,VALID,0.836682,
2005-09-23, 00:07:00,VALID,919.86,VALID,0,VALID,100,VALID,-0.0679233,VALID,20.3245,VALID,137,VALID,0.644354,
2005-09-23, 00:08:00,VALID,919.823,VALID,0,VALID,100,VALID,-0.0849042,VALID,20.3051,VALID,126,VALID,0.735465,
2005-09-23, 00:09:00,VALID,919.797,VALID,0,VALID,100,VALID,-0.0849042,VALID,20.2852,VALID,120,VALID,0.836301,
2005-09-23, 00:10:00,VALID,919.765,VALID,0,VALID,100,VALID,-0.0679233,VALID,20.2626,VALID,122,VALID,0.591797,
2005-09-23, 00:11:01,VALID,919.724,VALID,0,VALID,100,VALID,-0.101885,VALID,20.2706,VALID,106,VALID,0.665698,
2005-09-23, 00:12:00,VALID,919.699,VALID,0,VALID,100,VALID,-0.101885,VALID,20.2472,VALID,96,VALID,0.898996,
2005-09-23, 00:13:01,VALID,919.7,VALID,0,VALID,100,VALID,-0.101885,VALID,20.2308,VALID,97,VALID,0.986506,
2005-09-23, 00:14:00,VALID,919.688,VALID,0,VALID,100,VALID,-0.0849042,VALID,20.2149,VALID,96,VALID,0.830128,
2005-09-23, 00:15:00,VALID,919.676,VALID,0,VALID,100,VALID,-0.0509425,VALID,20.2047,VALID,73,VALID,0.741146,
2005-09-23, 00:16:00,VALID,919.648,VALID,0,VALID,100,VALID,-0.0509425,VALID,20.1891,VALID,90,VALID,0.899325,
2005-09-23, 00:17:00,VALID,919.633,VALID,0,VALID,100,VALID,-0.0679233,VALID,20.1923,VALID,75,VALID,0.981771,
2005-09-23, 00:18:00,VALID,919.598,VALID,0,VALID,100,VALID,-0.0679233,VALID,20.1695,VALID,72,VALID,1.11302,
2005-09-23, 00:19:00,VALID,919.578,VALID,0,VALID,100,VALID,-0.101885,VALID,20.1369,VALID,62,VALID,1.42696,
2005-09-23, 00:20:00,VALID,919.547,VALID,0,VALID,100,VALID,-0.0339617,VALID,20.1245,VALID,56,VALID,1.48742,
2005-09-23, 00:21:00,VALID,919.534,VALID,0,VALID,100,VALID,-0.0849042,VALID,20.1118,VALID,60,VALID,1.62445,
2005-09-23, 00:22:00,VALID,919.493,VALID,0,VALID,100,VALID,-0.0679233,VALID,20.1046,VALID,61,VALID,1.48544,
2005-09-23, 00:23:01,VALID,919.471,VALID,0,VALID,100,VALID,-0.0339617,VALID,20.1175,VALID,58,VALID,1.37607,
2005-09-23, 00:24:00,VALID,919.451,VALID,0,VALID,99.9952,VALID,-0.0849042,VALID,20.1474,VALID,51,VALID,0.962573,
2005-09-23, 00:25:01,VALID,919.415,VALID,0,VALID,99.8057,VALID,-0.0509425,VALID,20.1407,VALID,42,VALID,0.942042,
2005-09-23, 00:26:01,VALID,919.382,VALID,0,VALID,99.6213,VALID,-0.0169808,VALID,20.1143,VALID,45,VALID,1.01395,
2005-09-23, 00:27:00,VALID,919.361,VALID,0,VALID,99.4992,VALID,-0.0679233,VALID,20.1146,VALID,47,VALID,0.935938,
2005-09-23, 00:28:01,VALID,919.344,VALID,0,VALID,99.5043,VALID,-0.0509425,VALID,20.1178,VALID,50,VALID,1.0686,
2005-09-23, 00:29:01,VALID,919.334,VALID,0,VALID,99.3428,VALID,-0.0679233,VALID,20.121,VALID,49,VALID,1.11113,
2005-09-23, 00:30:00,VALID,919.327,VALID,0,VALID,99.203,VALID,-0.101885,VALID,20.1056,VALID,48,VALID,1.22351,
2005-09-23, 00:31:00,VALID,919.319,VALID,0,VALID,99.2983,VALID,-0.0509425,VALID,20.0887,VALID,45,VALID,1.16257,
2005-09-23, 00:32:00,VALID,919.309,VALID,0,VALID,99.3441,VALID,-0.0509425,VALID,20.0597,VALID,52,VALID,1.28776,
2005-09-23, 00:33:00,VALID,919.282,VALID,0,VALID,99.4535,VALID,-0.0169808,VALID,20.0174,VALID,49,VALID,1.16947,
2005-09-23, 00:34:00,VALID,919.27,VALID,0,VALID,99.704,VALID,-0.0169808,VALID,19.9819,VALID,43,VALID,1.21657,
2005-09-23, 00:35:00,VALID,919.238,VALID,0,VALID,99.8667,VALID,-0.0339617,VALID,19.9305,VALID,47,VALID,1.17246,
2005-09-23, 00:36:00,VALID,919.214,VALID,0,VALID,99.9964,VALID,-0.0679233,VALID,19.8952,VALID,48,VALID,0.897135,
2005-09-23, 00:37:01,VALID,919.172,VALID,0,VALID,100,VALID,-0.0509425,VALID,19.8592,VALID,43,VALID,0.636265,
2005-09-23, 00:38:00,VALID,919.147,VALID,0,VALID,100,VALID,-0.0679233,VALID,19.8398,VALID,46,VALID,0.595508,
2005-09-23, 00:39:00,VALID,919.12,VALID,0,VALID,100,VALID,0,VALID,19.814,VALID,46,VALID,0.60026,
2005-09-23, 00:40:01,VALID,919.122,VALID,0,VALID,100,VALID,-0.0169808,VALID,19.8048,VALID,46,VALID,0.528942,
2005-09-23, 00:41:01,VALID,919.119,VALID,0,VALID,100,VALID,-0.0509425,VALID,19.7857,VALID,46,VALID,0.612038,
2005-09-23, 00:42:00,VALID,919.13,VALID,0,VALID,100,VALID,-0.0509425,VALID,19.7462,VALID,31,VALID,0.685826,
2005-09-23, 00:43:01,VALID,919.177,VALID,0,VALID,100,VALID,-0.0679233,VALID,19.7432,VALID,29,VALID,0.623001,
2005-09-23, 00:44:00,VALID,919.185,VALID,0,VALID,100,VALID,-0.0849042,VALID,19.737,VALID,29,VALID,0.541211,
2005-09-23, 00:45:01,VALID,919.2,VALID,0,VALID,100,VALID,-0.0169808,VALID,19.7236,VALID,29,VALID,0.49673,
2005-09-23, 00:46:01,VALID,919.219,VALID,0,VALID,100,VALID,-0.0169808,VALID,19.7233,VALID,29,VALID,0.419389,
2005-09-23, 00:47:00,VALID,919.213,VALID,0,VALID,100,VALID,0,VALID,19.7422,VALID,29,VALID,0.379002,
2005-09-23, 00:48:01,VALID,919.235,VALID,0,VALID,100,VALID,0.0679233,VALID,19.7549,VALID,29,VALID,0.135231,
2005-09-23, 00:49:00,VALID,919.247,VALID,0,VALID,100,VALID,0.0509425,VALID,19.7839,VALID,29,VALID,0,
2005-09-23, 00:50:00,VALID,919.264,VALID,0,VALID,100,VALID,0.0509425,VALID,19.8065,VALID,29,VALID,0,
2005-09-23, 00:51:00,VALID,919.27,VALID,0,VALID,100,VALID,0.0849042,VALID,19.8038,VALID,29,VALID,0,
2005-09-23, 00:52:00,VALID,919.253,VALID,0,VALID,100,VALID,0.0339617,VALID,19.7874,VALID,29,VALID,0,
2005-09-23, 00:53:01,VALID,919.262,VALID,0,VALID,100,VALID,0.0169808,VALID,19.807,VALID,29,VALID,0,
2005-09-23, 00:54:00,VALID,919.282,VALID,0,VALID,100,VALID,0.0849042,VALID,19.8229,VALID,29,VALID,0.277431,
2005-09-23, 00:55:00,VALID,919.288,VALID,0,VALID,100,VALID,0.0849042,VALID,19.7807,VALID,29,VALID,0.40767,
2005-09-23, 00:56:01,VALID,919.29,VALID,0,VALID,100,VALID,0.0679233,VALID,19.6997,VALID,29,VALID,0.443638,
2005-09-23, 00:57:01,VALID,919.308,VALID,0,VALID,99.8375,VALID,0.0849042,VALID,19.6416,VALID,29,VALID,0.341602,
2005-09-23, 00:58:01,VALID,919.313,VALID,0,VALID,99.9283,VALID,0.0509425,VALID,19.6257,VALID,29,VALID,0.264236,
2005-09-23, 00:59:00,VALID,919.317,VALID,0,VALID,100,VALID,0.0509425,VALID,19.6548,VALID,29,VALID,0.0575457,
2005-09-23, 01:00:01,VALID,919.323,VALID,0,VALID,100,VALID,0.0339617,VALID,19.6744,VALID,29,VALID,0.0264863,
2005-09-23, 01:01:01,VALID,919.325,VALID,0,VALID,100,VALID,0.0169808,VALID,19.7047,VALID,29,VALID,0.0217226,
2005-09-23, 01:02:01,VALID,919.292,VALID,0,VALID,100,VALID,-0.0509425,VALID,19.6955,VALID,29,VALID,0.0357921,
2005-09-23, 01:03:00,VALID,919.281,VALID,0,VALID,100,VALID,-0.0679233,VALID,19.7025,VALID,29,VALID,0.271875,
2005-09-23, 01:04:00,VALID,919.257,VALID,0,VALID,100,VALID,-0.0679233,VALID,19.6856,VALID,29,VALID,0.157813,
2005-09-23, 01:05:01,VALID,919.223,VALID,0,VALID,100,VALID,-0.0339617,VALID,19.6886,VALID,29,VALID,0.119913,
2005-09-23, 01:06:01,VALID,919.202,VALID,0,VALID,99.8243,VALID,-0.0339617,VALID,19.6856,VALID,29,VALID,0,
2005-09-23, 01:07:01,VALID,919.174,VALID,0,VALID,99.6582,VALID,-0.0509425,VALID,19.6565,VALID,29,VALID,0.250953,
2005-09-23, 01:08:00,VALID,919.149,VALID,0,VALID,99.8324,VALID,-0.0339617,VALID,19.6888,VALID,29,VALID,0.409339,
2005-09-23, 01:09:00,VALID,919.138,VALID,0,VALID,99.7421,VALID,-0.0509425,VALID,19.7209,VALID,29,VALID,0.471418,
2005-09-23, 01:10:01,VALID,919.127,VALID,0,VALID,99.3377,VALID,-0.0679233,VALID,19.7666,VALID,29,VALID,0.432351,
2005-09-23, 01:11:01,VALID,919.131,VALID,0,VALID,99.0377,VALID,-0.0849042,VALID,19.8408,VALID,29,VALID,0.36481,
2005-09-23, 01:12:00,VALID,919.121,VALID,0,VALID,98.3866,VALID,-0.0849042,VALID,19.8796,VALID,29,VALID,0.350836,
2005-09-23, 01:13:00,VALID,919.116,VALID,0,VALID,97.8907,VALID,-0.118866,VALID,19.9089,VALID,29,VALID,0.275174,
2005-09-23, 01:14:00,VALID,919.113,VALID,0,VALID,97.8385,VALID,-0.101885,VALID,19.9442,VALID,29,VALID,0.384896,
2005-09-23, 01:15:00,VALID,919.105,VALID,0,VALID,98.0077,VALID,-0.101885,VALID,19.9799,VALID,100,VALID,0.685724,
2005-09-23, 01:16:00,VALID,919.107,VALID,0,VALID,98.276,VALID,-0.0509425,VALID,19.9859,VALID,116,VALID,0.539063,
2005-09-23, 01:17:01,VALID,919.119,VALID,0,VALID,98.5494,VALID,-0.0509425,VALID,19.9856,VALID,116,VALID,0.503634,
2005-09-23, 01:18:00,VALID,919.144,VALID,0,VALID,98.7503,VALID,-0.101885,VALID,20.0055,VALID,116,VALID,0.419829,
2005-09-23, 01:19:00,VALID,919.155,VALID,0,VALID,98.9207,VALID,-0.0509425,VALID,20.0117,VALID,116,VALID,0.461124,
2005-09-23, 01:20:00,VALID,919.168,VALID,0,VALID,99.0224,VALID,-0.0679233,VALID,20.0413,VALID,116,VALID,0.364258,
2005-09-23, 01:21:00,VALID,919.189,VALID,0,VALID,99.0377,VALID,-0.0679233,VALID,20.0537,VALID,136,VALID,0.577431,
2005-09-23, 01:22:00,VALID,919.204,VALID,0,VALID,99.0529,VALID,-0.0679233,VALID,20.0607,VALID,151,VALID,0.332564,
2005-09-23, 01:23:01,VALID,919.201,VALID,0,VALID,99.0491,VALID,-0.101885,VALID,20.0771,VALID,151,VALID,0.140067,
2005-09-23, 01:24:00,VALID,919.2,VALID,0,VALID,99.0529,VALID,-0.0679233,VALID,20.0865,VALID,151,VALID,0.0142045,
2005-09-23, 01:25:00,VALID,919.183,VALID,0,VALID,98.9512,VALID,-0.0509425,VALID,20.0954,VALID,151,VALID,0.127204,
2005-09-23, 01:26:00,VALID,919.14,VALID,0,VALID,98.8482,VALID,-0.0679233,VALID,20.093,VALID,151,VALID,0.146391,
2005-09-23, 01:27:01,VALID,919.106,VALID,0,VALID,98.9092,VALID,-0.0679233,VALID,20.0925,VALID,151,VALID,0.00345203,
2005-09-23, 01:28:00,VALID,919.079,VALID,0,VALID,98.9003,VALID,-0.0679233,VALID,20.0925,VALID,151,VALID,0.0489211,
2005-09-23, 01:29:01,VALID,919.062,VALID,0,VALID,98.8812,VALID,-0.0339617,VALID,20.0922,VALID,151,VALID,0,
2005-09-23, 01:30:00,VALID,919.036,VALID,0,VALID,98.8062,VALID,-0.0679233,VALID,20.0954,VALID,151,VALID,0,
2005-09-23, 01:31:01,VALID,919.04,VALID,0,VALID,98.8342,VALID,-0.0339617,VALID,20.0766,VALID,151,VALID,0.227325,
2005-09-23, 01:32:00,VALID,919.04,VALID,0,VALID,98.9486,VALID,-0.0849042,VALID,20.0699,VALID,151,VALID,0.21596,
2005-09-23, 01:33:01,VALID,919.053,VALID,0,VALID,98.9168,VALID,-0.0849042,VALID,20.083,VALID,151,VALID,0.310683,
2005-09-23, 01:34:00,VALID,919.05,VALID,0,VALID,98.7643,VALID,-0.0849042,VALID,20.0733,VALID,285,VALID,0.647079,
2005-09-23, 01:35:01,VALID,919.034,VALID,0,VALID,98.6702,VALID,-0.0509425,VALID,20.0381,VALID,294,VALID,0.369978,
2005-09-23, 01:36:01,VALID,919.026,VALID,0,VALID,98.8088,VALID,-0.0679233,VALID,20.005,VALID,294,VALID,0.276811,
2005-09-23, 01:37:00,VALID,919.016,VALID,0,VALID,98.9029,VALID,-0.0849042,VALID,19.9991,VALID,294,VALID,0.0104167,
2005-09-23, 01:38:00,VALID,918.996,VALID,0,VALID,99.0211,VALID,-0.101885,VALID,19.9956,VALID,294,VALID,0,
2005-09-23, 01:39:00,VALID,918.975,VALID,0,VALID,99.1508,VALID,-0.0849042,VALID,19.9956,VALID,294,VALID,0,
2005-09-23, 01:40:00,VALID,918.974,VALID,0,VALID,99.2042,VALID,-0.0509425,VALID,19.9956,VALID,294,VALID,0,
2005-09-23, 01:41:00,VALID,918.971,VALID,0,VALID,99.2767,VALID,-0.0849042,VALID,19.9894,VALID,294,VALID,0,
2005-09-23, 01:42:00,VALID,918.99,VALID,0,VALID,99.3581,VALID,-0.0849042,VALID,19.9951,VALID,294,VALID,0,
2005-09-23, 01:43:00,VALID,918.998,VALID,0,VALID,99.4166,VALID,-0.0849042,VALID,19.9886,VALID,294,VALID,0.0793968,
2005-09-23, 01:44:01,VALID,919.011,VALID,0,VALID,99.4242,VALID,-0.0849042,VALID,19.9829,VALID,288,VALID,0.372332,
2005-09-23, 01:45:00,VALID,919.018,VALID,0,VALID,99.5069,VALID,-0.0679233,VALID,19.9735,VALID,187,VALID,0.455078,
2005-09-23, 01:46:00,VALID,919.012,VALID,0,VALID,99.6124,VALID,-0.0509425,VALID,19.9494,VALID,187,VALID,0.721128,
2005-09-23, 01:47:00,VALID,918.991,VALID,0,VALID,99.6963,VALID,0.0339617,VALID,19.9325,VALID,179,VALID,0.599019,
2005-09-23, 01:48:01,VALID,918.969,VALID,0,VALID,99.7358,VALID,0.0169808,VALID,19.89,VALID,175,VALID,0.608073,
2005-09-23, 01:49:00,VALID,918.943,VALID,0,VALID,99.7777,VALID,0.0849042,VALID,19.8738,VALID,175,VALID,0.420603,
2005-09-23, 01:50:01,VALID,918.893,VALID,0,VALID,99.8362,VALID,0.0679233,VALID,19.8582,VALID,175,VALID,0.502668,
2005-09-23, 01:51:01,VALID,918.857,VALID,0,VALID,99.9476,VALID,0,VALID,19.8324,VALID,175,VALID,0.390285,
2005-09-23, 01:52:00,VALID,918.812,VALID,0,VALID,100,VALID,0,VALID,19.8291,VALID,175,VALID,0.0263445,
2005-09-23, 01:53:01,VALID,918.769,VALID,0,VALID,100,VALID,0.0339617,VALID,19.8165,VALID,175,VALID,0.384411,
2005-09-23, 01:54:01,VALID,918.726,VALID,0,VALID,100,VALID,0.0339617,VALID,19.7904,VALID,175,VALID,0.15904,
2005-09-23, 01:55:00,VALID,918.68,VALID,0,VALID,100,VALID,0.0509425,VALID,19.7613,VALID,175,VALID,0.018532,
2005-09-23, 01:56:00,VALID,918.653,VALID,0,VALID,100,VALID,0.0169808,VALID,19.7554,VALID,175,VALID,0,
2005-09-23, 01:57:01,VALID,918.648,VALID,0,VALID,100,VALID,0.0169808,VALID,19.7487,VALID,175,VALID,0.0145597,
2005-09-23, 01:58:00,VALID,918.646,VALID,0,VALID,100,VALID,0.0509425,VALID,19.7462,VALID,175,VALID,0.00152439,
2005-09-23, 01:59:01,VALID,918.651,VALID,0,VALID,100,VALID,0.0169808,VALID,19.7385,VALID,175,VALID,0,
2005-09-23, 02:00:00,VALID,918.661,VALID,0,VALID,100,VALID,0.0339617,VALID,19.7482,VALID,175,VALID,0.0592607,
2005-09-23, 02:01:01,VALID,918.663,VALID,0,VALID,100,VALID,0.0169808,VALID,19.7546,VALID,175,VALID,0,
2005-09-23, 02:02:01,VALID,918.671,VALID,0,VALID,100,VALID,0.0339617,VALID,19.7521,VALID,175,VALID,0,
2005-09-23, 02:03:01,VALID,918.67,VALID,0,VALID,99.973,VALID,0.0169808,VALID,19.694,VALID,175,VALID,0.0828125,
2005-09-23, 02:04:01,VALID,918.686,VALID,0,VALID,99.9751,VALID,0.0339617,VALID,19.6391,VALID,175,VALID,0.166266,
2005-09-23, 02:05:01,VALID,918.702,VALID,0,VALID,100,VALID,0,VALID,19.6622,VALID,175,VALID,0,
2005-09-23, 02:06:01,VALID,918.711,VALID,0,VALID,100,VALID,0.0169808,VALID,19.6682,VALID,175,VALID,0.182528,
2005-09-23, 02:07:00,VALID,918.736,VALID,0,VALID,100,VALID,0,VALID,19.6553,VALID,155,VALID,0.420945,
2005-09-23, 02:08:01,VALID,918.749,VALID,0,VALID,100,VALID,0.0339617,VALID,19.6297,VALID,131,VALID,0.276155,
2005-09-23, 02:09:01,VALID,918.776,VALID,0,VALID,100,VALID,0.0169808,VALID,19.6036,VALID,131,VALID,0.295099,
2005-09-23, 02:10:01,VALID,918.783,VALID,0,VALID,100,VALID,0.0169808,VALID,19.5813,VALID,132,VALID,0.385817,
2005-09-23, 02:11:01,VALID,918.797,VALID,0,VALID,100,VALID,0.0169808,VALID,19.591,VALID,133,VALID,0.296484,
2005-09-23, 02:12:01,VALID,918.79,VALID,0,VALID,100,VALID,0,VALID,19.6039,VALID,133,VALID,0.117188,
2005-09-23, 02:13:00,VALID,918.798,VALID,0,VALID,100,VALID,0,VALID,19.6133,VALID,134,VALID,0.304878,
2005-09-23, 02:14:01,VALID,918.807,VALID,0,VALID,100,VALID,0,VALID,19.6073,VALID,134,VALID,0.17309,
2005-09-23, 02:15:01,VALID,918.8,VALID,0,VALID,100,VALID,0,VALID,19.6011,VALID,134,VALID,0.536519,
2005-09-23, 02:16:01,VALID,918.788,VALID,0,VALID,100,VALID,0,VALID,19.5912,VALID,132,VALID,0.623242,
2005-09-23, 02:17:01,VALID,918.769,VALID,0,VALID,100,VALID,0.0169808,VALID,19.5684,VALID,131,VALID,0.840376,
2005-09-23, 02:18:01,VALID,918.751,VALID,0,VALID,100,VALID,0,VALID,19.5686,VALID,130,VALID,0.799716,
2005-09-23, 02:19:01,VALID,918.73,VALID,0,VALID,100,VALID,0,VALID,19.5554,VALID,130,VALID,0.312891,
2005-09-23, 02:20:01,VALID,918.699,VALID,0,VALID,100,VALID,0,VALID,19.5559,VALID,130,VALID,0.495722,
2005-09-23, 02:21:01,VALID,918.674,VALID,0,VALID,100,VALID,0,VALID,19.5299,VALID,130,VALID,0.333452,
2005-09-23, 02:22:01,VALID,918.63,VALID,0,VALID,100,VALID,-0.0169808,VALID,19.5529,VALID,130,VALID,0.103165,
2005-09-23, 02:23:01,VALID,918.61,VALID,0,VALID,100,VALID,0.0169808,VALID,19.5328,VALID,108,VALID,0.340116,
2005-09-23, 02:24:00,VALID,918.584,VALID,0,VALID,100,VALID,0,VALID,19.5199,VALID,96,VALID,0.392624,
2005-09-23, 02:25:01,VALID,918.571,VALID,0,VALID,100,VALID,0.0339617,VALID,19.5073,VALID,87,VALID,0.378993,
2005-09-23, 02:26:01,VALID,918.555,VALID,0,VALID,100,VALID,0,VALID,19.5107,VALID,88,VALID,0.238281,
2005-09-23, 02:27:01,VALID,918.522,VALID,0,VALID,100,VALID,0,VALID,19.5132,VALID,124,VALID,0.568892,
2005-09-23, 02:28:01,VALID,918.505,VALID,0,VALID,100,VALID,0.0339617,VALID,19.5271,VALID,133,VALID,0.794336,
2005-09-23, 02:29:01,VALID,918.495,VALID,0,VALID,100,VALID,0,VALID,19.514,VALID,134,VALID,0.802507,
2005-09-23, 02:30:01,VALID,918.467,VALID,0,VALID,100,VALID,0,VALID,19.4941,VALID,138,VALID,0.825036,
2005-09-23, 02:31:01,VALID,918.457,VALID,0,VALID,100,VALID,0,VALID,19.4943,VALID,126,VALID,0.432927,
2005-09-23, 02:32:01,VALID,918.445,VALID,0,VALID,100,VALID,0.0169808,VALID,19.4881,VALID,126,VALID,0.533594,
2005-09-23, 02:33:01,VALID,918.438,VALID,0,VALID,100,VALID,0,VALID,19.4623,VALID,127,VALID,0.491279,
2005-09-23, 02:34:01,VALID,918.409,VALID,0,VALID,100,VALID,0.0339617,VALID,19.462,VALID,126,VALID,0.641369,
2005-09-23, 02:35:01,VALID,918.393,VALID,0,VALID,100,VALID,0.0169808,VALID,19.4327,VALID,117,VALID,0.629167,
2005-09-23, 02:36:01,VALID,918.373,VALID,0,VALID,100,VALID,0.0169808,VALID,19.4131,VALID,110,VALID,0.854167,
2005-09-23, 02:37:01,VALID,918.364,VALID,0,VALID,100,VALID,0.0169808,VALID,19.4042,VALID,100,VALID,1.01944,
2005-09-23, 02:38:01,VALID,918.359,VALID,0,VALID,100,VALID,0.0169808,VALID,19.3846,VALID,100,VALID,0.881836,
2005-09-23, 02:39:01,VALID,918.357,VALID,0,VALID,100,VALID,0.0169808,VALID,19.3587,VALID,105,VALID,1.03852,
2005-09-23, 02:40:01,VALID,918.354,VALID,0,VALID,100,VALID,0,VALID,19.3461,VALID,110,VALID,0.966146,
2005-09-23, 02:41:01,VALID,918.348,VALID,0,VALID,100,VALID,0,VALID,19.3423,VALID,101,VALID,0.844531,
2005-09-23, 02:42:01,VALID,918.352,VALID,0,VALID,100,VALID,0,VALID,19.3138,VALID,117,VALID,0.420351,
2005-09-23, 02:43:01,VALID,918.363,VALID,0,VALID,100,VALID,0,VALID,19.3004,VALID,132,VALID,0.856179,
2005-09-23, 02:44:01,VALID,918.351,VALID,0,VALID,100,VALID,0.0169808,VALID,19.3043,VALID,126,VALID,0.694141,
2005-09-23, 02:45:00,VALID,918.366,VALID,0,VALID,100,VALID,0.0169808,VALID,19.2877,VALID,134,VALID,0.602734,
2005-09-23, 02:46:00,VALID,918.373,VALID,0,VALID,100,VALID,-0.0169808,VALID,19.282,VALID,128,VALID,0.575707,
2005-09-23, 02:47:00,VALID,918.389,VALID,0,VALID,100,VALID,0,VALID,19.2594,VALID,142,VALID,0.814862,
2005-09-23, 02:48:00,VALID,918.404,VALID,0,VALID,100,VALID,0,VALID,19.2591,VALID,151,VALID,0.533067,
2005-09-23, 02:49:00,VALID,918.423,VALID,0,VALID,100,VALID,0,VALID,19.2457,VALID,147,VALID,0.923781,
2005-09-23, 02:50:00,VALID,918.435,VALID,0,VALID,100,VALID,0.0169808,VALID,19.2462,VALID,140,VALID,0.985119,
2005-09-23, 02:51:00,VALID,918.439,VALID,0,VALID,100,VALID,-0.0169808,VALID,19.2432,VALID,135,VALID,0.967052,
2005-09-23, 02:52:00,VALID,918.434,VALID,0,VALID,100,VALID,0.0169808,VALID,19.2363,VALID,135,VALID,0.830729,
2005-09-23, 02:53:00,VALID,918.438,VALID,0,VALID,100,VALID,0,VALID,19.2201,VALID,139,VALID,0.473133,
2005-09-23, 02:54:00,VALID,918.448,VALID,0,VALID,100,VALID,0.0339617,VALID,19.201,VALID,122,VALID,0.392912,
2005-09-23, 02:55:00,VALID,918.448,VALID,0,VALID,100,VALID,0.0169808,VALID,19.1653,VALID,105,VALID,0.614062,
2005-09-23, 02:56:00,VALID,918.453,VALID,0,VALID,100,VALID,0,VALID,19.13,VALID,98,VALID,0.740371,
2005-09-23, 02:57:00,VALID,918.458,VALID,0,VALID,100,VALID,-0.0169808,VALID,19.0982,VALID,93,VALID,0.825721,
2005-09-23, 02:58:00,VALID,918.447,VALID,0,VALID,100,VALID,0,VALID,19.0587,VALID,97,VALID,0.852148,
2005-09-23, 02:59:00,VALID,918.434,VALID,0,VALID,100,VALID,0,VALID,19.056,VALID,101,VALID,0.784784,
2005-09-23, 03:00:00,VALID,918.407,VALID,0,VALID,100,VALID,0.0169808,VALID,19.0592,VALID,105,VALID,0.812686,
2005-09-23, 03:01:00,VALID,918.364,VALID,0,VALID,100,VALID,0.0169808,VALID,19.026,VALID,103,VALID,0.882267,
2005-09-23, 03:02:00,VALID,918.308,VALID,0,VALID,100,VALID,0,VALID,19.0138,VALID,91,VALID,0.819382,
2005-09-23, 03:03:00,VALID,918.274,VALID,0,VALID,100,VALID,0,VALID,18.9912,VALID,87,VALID,0.574777,
2005-09-23, 03:04:00,VALID,918.238,VALID,0,VALID,100,VALID,0.0169808,VALID,18.9653,VALID,105,VALID,0.568452,
2005-09-23, 03:05:00,VALID,918.2,VALID,0,VALID,100,VALID,0,VALID,18.9298,VALID,119,VALID,0.577381,
2005-09-23, 03:06:00,VALID,918.174,VALID,0,VALID,100,VALID,-0.0169808,VALID,18.9045,VALID,98,VALID,0.714208,
2005-09-23, 03:07:00,VALID,918.165,VALID,0,VALID,100,VALID,0.0339617,VALID,18.8752,VALID,94,VALID,0.956032,
2005-09-23, 03:08:00,VALID,918.157,VALID,0,VALID,100,VALID,0,VALID,18.8427,VALID,89,VALID,0.988281,
2005-09-23, 03:09:00,VALID,918.157,VALID,0,VALID,100,VALID,0,VALID,18.8272,VALID,90,VALID,1.21309,
2005-09-23, 03:10:00,VALID,918.157,VALID,0,VALID,100,VALID,0.0339617,VALID,18.8168,VALID,99,VALID,1.17759,
2005-09-23, 03:11:00,VALID,918.166,VALID,0,VALID,100,VALID,0.0169808,VALID,18.8235,VALID,104,VALID,0.970022,
2005-09-23, 03:12:00,VALID,918.17,VALID,0,VALID,100,VALID,0.0679233,VALID,18.8203,VALID,100,VALID,0.896763,
2005-09-23, 03:13:00,VALID,918.186,VALID,0,VALID,100,VALID,0.0169808,VALID,18.8168,VALID,90,VALID,0.757622,
2005-09-23, 03:14:00,VALID,918.195,VALID,0,VALID,100,VALID,0.0339617,VALID,18.8102,VALID,89,VALID,0.532848,
2005-09-23, 03:15:00,VALID,918.204,VALID,0,VALID,100,VALID,0,VALID,18.8069,VALID,89,VALID,0.462847,
2005-09-23, 03:16:00,VALID,918.222,VALID,0,VALID,100,VALID,0,VALID,18.8106,VALID,89,VALID,0.424964,
2005-09-23, 03:17:00,VALID,918.231,VALID,0,VALID,100,VALID,0,VALID,18.7878,VALID,89,VALID,0.426235,
2005-09-23, 03:18:00,VALID,918.238,VALID,0,VALID,100,VALID,0,VALID,18.7428,VALID,75,VALID,0.469122,
2005-09-23, 03:19:00,VALID,918.246,VALID,0,VALID,100,VALID,0,VALID,18.7108,VALID,61,VALID,0.745808,
2005-09-23, 03:20:00,VALID,918.238,VALID,0,VALID,100,VALID,-0.0169808,VALID,18.6877,VALID,61,VALID,0.632631,
2005-09-23, 03:21:00,VALID,918.246,VALID,0,VALID,100,VALID,0.0169808,VALID,18.6912,VALID,79,VALID,0.61701,
2005-09-23, 03:22:00,VALID,918.243,VALID,0,VALID,100,VALID,0,VALID,18.6785,VALID,108,VALID,0.697027,
2005-09-23, 03:23:00,VALID,918.268,VALID,0,VALID,100,VALID,0,VALID,18.6495,VALID,121,VALID,0.956936,
2005-09-23, 03:24:00,VALID,918.286,VALID,0,VALID,100,VALID,0.0169808,VALID,18.6591,VALID,123,VALID,0.906836,
2005-09-23, 03:25:00,VALID,918.307,VALID,0,VALID,100,VALID,0.0169808,VALID,18.6684,VALID,124,VALID,1.11277,
2005-09-23, 03:26:00,VALID,918.334,VALID,0,VALID,100,VALID,0.0169808,VALID,18.6718,VALID,137,VALID,1.36519,
2005-09-23, 03:27:00,VALID,918.36,VALID,0,VALID,100,VALID,0.0169808,VALID,18.6914,VALID,139,VALID,1.33066,
2005-09-23, 03:28:00,VALID,918.377,VALID,0,VALID,100,VALID,0,VALID,18.7142,VALID,139,VALID,1.24926,
2005-09-23, 03:29:00,VALID,918.365,VALID,0,VALID,100,VALID,-0.0169808,VALID,18.7334,VALID,145,VALID,1.12092,
2005-09-23, 03:30:00,VALID,918.372,VALID,0,VALID,100,VALID,0,VALID,18.7331,VALID,140,VALID,1.10174,
2005-09-23, 03:31:00,VALID,918.359,VALID,0,VALID,100,VALID,0.0169808,VALID,18.7398,VALID,133,VALID,1.37016,
2005-09-23, 03:32:00,VALID,918.356,VALID,0,VALID,100,VALID,0.0169808,VALID,18.7461,VALID,144,VALID,1.20666,
2005-09-23, 03:33:00,VALID,918.342,VALID,0,VALID,100,VALID,-0.0169808,VALID,18.7562,VALID,130,VALID,1.13184,
2005-09-23, 03:34:00,VALID,918.333,VALID,0,VALID,100,VALID,0.0169808,VALID,18.7629,VALID,120,VALID,1.25112,
2005-09-23, 03:35:00,VALID,918.345,VALID,0,VALID,100,VALID,0,VALID,18.756,VALID,152,VALID,1.66443,
2005-09-23, 03:36:00,VALID,918.35,VALID,0,VALID,100,VALID,0,VALID,18.7657,VALID,140,VALID,1.10176,
2005-09-23, 03:37:00,VALID,918.363,VALID,0,VALID,100,VALID,-0.0339617,VALID,18.7758,VALID,137,VALID,1.3186,
2005-09-23, 03:38:00,VALID,918.368,VALID,0,VALID,100,VALID,0,VALID,18.795,VALID,140,VALID,1.32412,